Regional Weather Roundup
Issued by NWS Austin/San Antonio, TX

Home | Current Version | Previous Version | Text Only | Print | Product List | Glossary On
Versions: 1 2 3 4 5 6 7 8 9 10 11 12 13 14 15 16 17 18 19 20 21 22 23 24 25 26 27 28 29 30 31 32 33 34 35 36 37 38 39 40 41 42 43 44 45 46 47 48 49 50
000
ASUS44 KEWX 222210
RWREWX
SOUTH TEXAS REGIONAL WEATHER ROUNDUP
NATIONAL WEATHER SERVICE AUSTIN/SAN ANTONIO TX
500 PM CDT SUN OCT 22 2017

NOTE: "FAIR" INDICATED FEW OR NO CLOUDS BELOW 12,000 FEET WITH NO
SIGNIFICANT WEATHER AND/OR OBSTRUCTIONS TO VISIBILITY.

* - THESE STATIONS ARE NOT NWS OR FAA STATIONS...AND ARE NOT SUBJECT
    TO NWS AND FAA QUALITY CONTROL.

TXZ171-172-183>190-222300-
TEXAS HILL COUNTRY AND EDWARDS PLATEAU

CITY           SKY/WX    TMP DP  RH WIND       PRES   REMARKS
JUNCTION       SUNNY     79  36  21 NW8       30.17S
*LLANO         SUNNY     77  45  31 N10       30.19R
BURNET         SUNNY     76  49  38 N10       30.17S
*HORSESHOE BAY SUNNY     76  50  39 NW5       30.15S
*KERRVILLE     SUNNY     76  43  30 NE7       30.16S
*FREDERICKSBRG SUNNY     74  41  29 N8        30.16S
*ROCKSPRINGS   NOT AVBL
*BOERNE STAGE  SUNNY     75  39  27 N9G17     30.15S
*CASTROVILLE   SUNNY     82  36  19 N10G16    30.12F
HONDO          SUNNY     85  42  22 N14       30.11F
*UVALDE        SUNNY     83  45  26 N7        30.12S
DEL RIO        SUNNY     82  45  27 NW8       30.12F
LAUGHLIN AFB   SUNNY     83  55  37 N7        30.12F
CARRIZO SPRGS  SUNNY     86  46  25 N9        30.09S
*EAGLE PASS    NOT AVBL
$$

TXZ173-191>194-202-209-217>225-228-222300-
CENTRAL AND SOUTH CENTRAL TEXAS

CITY           SKY/WX    TMP DP  RH WIND       PRES   REMARKS
GEORGETOWN     SUNNY     76  49  38 N12       30.14F
AUSTIN/BERGSTM MOSUNNY   77  52  41 N15       30.11S
AUSTIN/MABRY   SUNNY     79  50  36 VRB7      30.13S
*AUSTIN/EXEC   SUNNY     75  52  43 N10       30.12F HAZE
*LAGO VISTA    SUNNY     75  51  41 N8        30.15S
SAN MARCOS     SUNNY     79  50  36 N16       30.12S
NEW BRAUNFELS  SUNNY     81  47  30 N14       30.10S
RANDOLPH AFB   SUNNY     79  41  25 N9G21     30.12F
PT SAN ANTONIO SUNNY     81  43  25 N10G18    30.09F
SAN ANTONIO    SUNNY     81  42  25 NE15G21   30.11F
STINSON FIELD  SUNNY     83  43  24 N13       30.09S
*LA GRANGE     SUNNY     79  56  45 N9        30.07S
*GIDDINGS      SUNNY     76  53  43 N9G17     30.11S
*GONZALES      CLOUDY    80  54  41 N14G20    30.09S
$$

TXZ163>164-176>182-195>201-210>213-226-227-235-222300-
SOUTHEAST TEXAS

CITY           SKY/WX    TMP DP  RH WIND       PRES   REMARKS
COLLEGE STN    SUNNY     77  54  44 N14G21    30.09S
*BRYAN         MOSUNNY   76  53  45 NW10G17   30.10S
*CALDWELL      SUNNY     75  54  48 NW12G20   30.10S
*CROCKETT        N/A     75  52  43 NW12G18   30.09S
*BRENHAM       SUNNY     76  57  51 N15       30.10S
HUNTSVILLE     SUNNY     76  52  43 N8G17     30.07F
CONROE         SUNNY     74  59  59 NW15      30.07F
HOUSTON BUSH   MOSUNNY   73  59  61 N9G20     30.07F
HOUSTON HOBBY  PTSUNNY   76  57  51 N15       30.06F
*HOUSTON SW AP MOSUNNY   73  59  62 N7        30.08F
PEARLAND       SUNNY     76  57  51 N8        30.08F
HOUSTON HOOKS  PTSUNNY   75  59  57 N8        30.07F
ELLINGTON FLD  MOSUNNY   72  63  73 N10       30.08F
SUGAR LAND     MOSUNNY   74  60  61 N9        30.07F
*HOUSTON EXEC  MOSUNNY   75  59  57 N7        30.09F
*CLEVELAND MUN MOSUNNY   73  58  60 N5        30.07F
*WHARTON       SUNNY     72  58  60 N8        30.09F
*COLUMBUS      FAIR      75  55  50 N7        30.10S
*EAGLE LAKE    CLEAR     76  60  57 N7        30.08F
$$

TXZ214>216-236>238-222300-
THE UPPER TEXAS COAST

CITY           SKY/WX    TMP DP  RH WIND       PRES   REMARKS
*ORANGE        PTSUNNY   71  63  76 N12       30.07S
PORT ARTHUR    MOSUNNY   70  60  70 NW14G21   30.04S
GALVESTON      MOSUNNY   73  63  70 N18       30.07F
ANGLETON       NOT AVBL
*BAY CITY      SUNNY     75  61  62 N13       30.08S
PALACIOS       SUNNY     74  60  61 N13G22    30.07S
$$

TXZ229>234-239>247-222300-
TEXAS COASTAL BEND AND RIO GRANDE PLAINS

CITY           SKY/WX    TMP DP  RH WIND       PRES   REMARKS
VICTORIA       SUNNY     79  58  48 N12       30.08S
*BEEVILLE      SUNNY     82  43  25 N12G17    30.08R
ROCKPORT       SUNNY     80  60  50 NE14      30.06S
*PORT ARANSAS  NOT AVBL
*PORT LAVACA   SUNNY     75  61  62 NE14      30.08S
*INGLESIDE     NOT AVBL
CORPUS CHRISTI MOSUNNY   80  62  54 NE16      30.06S
CORPUS NAS     SUNNY     79  65  62 NE17      30.06R
*ROBSTOWN      SUNNY     81  60  47 NE15      30.06S
ALICE          SUNNY     86  56  35 N16G22    30.05R
KINGSVILLE NAS MOSUNNY   83  63  50 NE13G21   30.06R
COTULLA        SUNNY     86  47  25 NE12      30.08S
*FAITH RANCH   SUNNY     86  52  30 N9G15     30.09S
LAREDO         SUNNY     88  64  44 N14       30.06S
$$

TXZ248>255-222300-
DEEP SOUTH TEXAS

CITY           SKY/WX    TMP DP  RH WIND       PRES   REMARKS
BROWNSVILLE    CLOUDY    83  75  77 NE24G32   30.00R HX  90
PORT ISABEL    MOSUNNY   81  73  76 E24G33    30.00R
*SOUTH PADRE   NOT AVBL
HARLINGEN      PTSUNNY   80  74  81 E24G33    30.00R
*HEBBRONVILLE  PTSUNNY   85  62  45 NE16      30.06S
MCALLEN        PTSUNNY   84  77  79 N7        29.98S HX  94
*WESLACO       CLOUDY    81  73  75 NE32G43   29.99R HAZE
FALFURRIAS     SUNNY     84  62  47 NE18      30.04R
EDINBURG       PTSUNNY   82  71  70 NE22G32   30.02R
*ZAPATA        SUNNY     89  65  44 N13G20    30.03S HX  91
$$

TXZ213>215-236>238-242>244-246-247-251-254-255-222300-
CMAN STATIONS

STATION/POSITION TIME  TEMP    WIND        PRES    WAVE
                       AIR SEA DIR/SP/G            HT/PER
                 (UTC) (F)     (DEG/KT/KT) (MB)    (FT/S)
SABINE PASS      2142   70 76  320/  7/ 15 1019.1
SEA RIM ST PARK  2200   70     340/ 13/ 16 1018.0
NORTH JETTY/GLS  2148          340/ 16/ 19 1017.3
EAGLE POINT      2142   71 75  360/  9/ 14 1018.3
MORGANS POINT    2142   72 77  310/ 13/ 17 1018.0
PORT O`CONNOR    2142   73 79  360/ 14/ 16 1018.1
MALAQUITE BEACH  2142   74 81   30/ 16/ 19 1017.6
BAFFIN BAY       2142   75 83   40/ 16/ 19 1018.0
PORT ISABEL      2142   78 81   60/ 22/ 26 1015.8
$$




USA.gov is the U.S. government's official web portal to all federal, state and local government web resources and services.